Regional Weather Roundup
Issued by NWS Wilmington, NC

Home | Current Version | Previous Version | Text Only | Print | Product List | Glossary On
Versions: 1 2 3 4 5 6 7 8 9 10 11 12 13 14 15 16 17 18 19 20 21 22 23 24 25 26 27 28 29 30 31 32 33 34 35 36 37 38 39 40 41 42 43 44 45 46 47 48 49 50
400
ASUS42 KILM 041813
RWRILM
RWRILM
REGIONAL HOURLY WEATHER ROUNDUP
NATIONAL WEATHER SERVICE WILMINGTON NC
200 PM EDT WED MAY 04 2016

NOTE: "FAIR" INDICATES FEW OR NO CLOUDS BELOW 12,000 FEET WITH NO
SIGNIFICANT WEATHER AND/OR OBSTRUCTIONS TO VISIBILITY.

...............WFO WILMINGTON COUNTY WARNING AREA...............

......COASTAL NC AND SC COUNTIES......

CITY           SKY/WX    TMP DP  RH WIND       PRES   REMARKS
WILMINGTON     MOSUNNY   79  61  53 SW12      29.61F
N MYRTLE BEACH MOSUNNY   80  59  48 SW10G22   29.62F
MYRTLE BEACH   MOSUNNY   81  55  41 W10       29.65F

......INLAND NC AND SC COUNTIES.......

CITY           SKY/WX    TMP DP  RH WIND       PRES   REMARKS
LUMBERTON      PTSUNNY   77  57  50 W3        29.63F
ELIZABETHTOWN  PTSUNNY   75  59  57 CALM      29.64F
WHITEVILLE     NOT AVBL
FLORENCE       MOSUNNY   77  53  43 MISG      29.65F
DARLINGTON     PTSUNNY   73  48  40 W3        29.67F
KINGSTREE      FAIR      75  50  41 SW12G18   29.65F
HARTSVILLE     PTSUNNY   72  46  40 S3        29.66F
BENNETTSVILLE  PTSUNNY   77  48  36 CALM      29.66F
CONWAY         PTSUNNY   77  55  47 W8        29.64F
GEORGETOWN     FAIR      79  52  38 W10G18    29.65F
MARION         FAIR      75  55  50 NW9       29.64F

....................REST OF NORTH CAROLINA......................

.........EASTERN NC.........

CITY           SKY/WX    TMP DP  RH WIND       PRES   REMARKS
CAPE HATTERAS  CLOUDY    71  68  90 SW7       29.64F
JACKSONVILLE   MOSUNNY   77  64  64 VRB5      29.62F
MOREHEAD CITY  PTSUNNY   72  66  81 SW12      29.62F
KENANSVILLE    MOSUNNY   72  60  67 CALM      29.64F
NEW BERN       PTSUNNY   76  64  66 NW6       29.63F
ELIZABETH CITY CLOUDY    67  60  78 CALM      29.65F

.........CENTRAL NC.........

CITY           SKY/WX    TMP DP  RH WIND       PRES   REMARKS
RALEIGH DURHAM MOSUNNY   70  53  54 N6        29.65F
ROCKY MOUNT    PTSUNNY   70  58  65 CALM      29.64F
ROANOKE RAPIDS NOT AVBL
FAYETTEVILLE   MOSUNNY   74  57  55 E5        29.64F
HOFFMAN        PTSUNNY   73  48  41 N5        29.66F

.........WESTERN NC.........

CITY           SKY/WX    TMP DP  RH WIND       PRES   REMARKS
CHARLOTTE      PTSUNNY   68  49  50 NW7       29.69F
GREENSBORO     PTSUNNY   67  45  45 NW8       29.67F
HICKORY        NOT AVBL
BOONE          NOT AVBL
ASHEVILLE      NOT AVBL

.....................REST OF SOUTH CAROLINA.....................

.........EASTERN SC.........

CITY           SKY/WX    TMP DP  RH WIND       PRES   REMARKS
CHARLESTON     MOSUNNY   79  52  38 SW10G20   29.66F
BEAUFORT MCAS  MOSUNNY   78  52  40 W14G22    29.69F
HILTON HEAD    MOSUNNY   82  55  39 W8G16     29.71F

.........CENTRAL SC.........

CITY           SKY/WX    TMP DP  RH WIND       PRES   REMARKS
COLUMBIA       MOSUNNY   75  48  38 VRB5      29.67F
ORANGEBURG     MOSUNNY   77  46  33 W16       29.68F
SUMTER SHAW    CLOUDY    74  51  45 VRB6      29.64F

.........WESTERN SC.........

CITY           SKY/WX    TMP DP  RH WIND       PRES   REMARKS
GREENVILLE     NOT AVBL
ROCK HILL      MOSUNNY   69  49  48 NW9       29.69F
ANDERSON       CLOUDY    69  41  36 VRB5G17   29.73F
CLEMSON        NOT AVBL
GREENWOOD      PTSUNNY   70  42  36 W10       29.73F


...................COASTAL AND OFFSHORE REPORTS..................

................LOCAL PIERS AND NC RESERVE................


STATION/POSITION TIME  SKY/WX   TEMP    WIND        PRES    VSBY
                                AIR SEA DIR/SP/G
                 (UTC)          (F)     (DEG/KT/KT) (MB)    (MI)
JOHNY MRCER PIER 1700            73 69  190/ 10/ 12 1002.4F
NC RESRV MASNBRO NOT AVBL
OCEAN CREST PIER NOT AVBL
SPRINGMAID  PIER 1700            76 71  250/ 10/ 15 1003.7F


................COASTAL AND OFFSHORE BUOYS................


STATION/POSITION TIME  SKY/WX   TEMP    WIND        PRES    VSBY
                                AIR SEA DIR/SP/G
                 (UTC)          (F)     (DEG/KT/KT) (MB)    (MI)
DIMNDSHOAL 41025 1750            69 71  250/ 12/ 12 1003.7F
WVE H/P(F/S)=  4/ 6 SWL H/P/D(F/S/D)=  3/180/ 6

CAPE LOOKOUT     1800            69     170/  6/  8 1002.6F
ONSLOW BAY 41036 NOT AVBL
ONSLOW BAY 41064 NOT AVBL
ONSLOW BAY 41159 1725               73                N/A
WVE H/P(F/S)=  5/ 7

5SE WRITBC 41038 1708            71 70  220/ 12/ 16 1004.0F
MASNBO INL 41110 1706               70                N/A
WVE H/P(F/S)=  3/ 7

WILM HARBR 41108 1726               70                N/A
WVE H/P(F/S)=  4/ 7

27SE WRITB 41037 1708            71 72  250/ 10/ 12 1003.9F
FRYING PAN 41013 1800            72 73  240/ 16/ 17 1003.1F
SUNST NRSH 41024 1708            71 72  220/ 14/ 16 1003.5F
CAPRS NRSH 41029 1708            73 72  250/ 10/ 14 1005.2F
EDISTO     41004 1750            73 74  260/ 12/ 14 1004.9F
WVE H/P(F/S)=  3/ 7 SWL H/P/D(F/S/D)=  2/ 7



..........OFFSHORE BUOYS BEYOND 100 NM OFFSHORE...........
.....IN A TRIANGLE---HAT TO BERMUDA TO BAHAMAS TO HAT.....


STATION/POSITION TIME  SKY/WX   TEMP    WIND        PRES    VSBY
                                AIR SEA DIR/SP/G
                 (UTC)          (F)     (DEG/KT/KT) (MB)    (MI)
150E HAT   41001 NOT AVBL
W BERMUDA  41048 1750            69 70  140/ 14/ 17 1010.8F
WVE H/P(F/S)=  3/ 9 SWL H/P/D(F/S/D)=  2/110/ 9

ATLANTIC S 41049 1750            75 77  140/ 10/ 10 1018.2
WVE H/P(F/S)=  3/ 9 SWL H/P/D(F/S/D)=  3/ 90/ 9

E BAHAMAS  41046 1750            78 80  140/ 16/ 21 1015.2F
WVE H/P(F/S)=  5/ 5 SWL H/P/D(F/S/D)=  2/ 50/ 9

NE BAHAMAS 41047 1750            77 77  190/ 16/ 19 1012.9F
WVE H/P(F/S)=  4/ 9 SWL H/P/D(F/S/D)=  2/ 80/ 9

120E CANVRL41010 1720            78 78  290/ 14/ 16 1007.6F

END




USA.gov is the U.S. government's official web portal to all federal, state and local government web resources and services.